Regional Weather Roundup
Issued by NWS

Home | Current Version | Previous Version | Graphics & Text | Print | Product List | Glossary On
Versions: 1 2 3 4 5 6 7 8 9 10 11 12 13 14 15 16 17 18 19 20 21 22 23 24 25 26 27 28 29 30 31 32 33 34 35 36 37 38 39 40 41 42 43 44 45 46 47 48 49 50
000
ASUS45 KABQ 261310
RWRNM
WEATHER ROUNDUP FOR NEW MEXICO
NATIONAL WEATHER SERVICE ALBUQUERQUE NM
700 AM MDT SUN APR 26 2015

NOTE: "FAIR" MEANS FEW OR NO CLOUDS BELOW 12,000 FEET AGL WITH NO
       SIGNIFICANT WEATHER OR OBSTRUCTIONS TO VISION.

      THIS PRODUCT IS RELEASED AS TWO VERSIONS.  ONE VERSION NEAR
      THE TOP OF THE HOUR CONTAINING PRELIMINARY DATA FROM ALBUQUERQUE
      AND OTHER STATIONS.  A FINAL VERSION WITH ADDITIONAL DATA IS
      ISSUED ABOUT 10 MINUTES AFTER THE HOUR.

NMZ501-503-504-510>518-261400-
NORTHWEST PLATEAU/NORTHCENTRAL MOUNTAINS

CITY           SKY/WX    TMP DP  RH WIND       PRES   REMARKS
FARMINGTON     CLOUDY    42  37  82 CALM      29.75R
LOS ALAMOS     DRIZZLE   42  35  74 SW5       29.81R
SANTA FE       CLOUDY    46  32  58 N5        29.77S
TAOS           MOCLDY    39  27  60 SE6       29.81R WCI  35
ANGEL FIRE     PTSUNNY   28  26  92 CALM      29.84F

$$
NMZ402-403-502-505>509-261400-
WESTCENTRAL MOUNTAINS/SOUTHWEST MOUNTAINS

CITY           SKY/WX    TMP DP  RH WIND       PRES   REMARKS
GALLUP         LGT RAIN  36  33  89 SE5       29.78R WCI  32
GRANTS         RAIN      40  38  94 SE5       29.77F
SILVER CITY      N/A     46  36  66 W17       29.81R

$$
NMZ407-409-411-412-261400-
SOUTHERN DESERTS

CITY           SKY/WX    TMP DP  RH WIND       PRES   REMARKS
LORDSBURG      LGT RAIN  43  41  93 NW17      29.84R
DEMING         CLOUDY    55  32  41 SW15      29.78R
LAS CRUCES     CLOUDY    56  24  29 SW16      29.79S
HOLLOMAN AFB   CLOUDY    60  25  26 S6        29.76R
ALAMOGORDO     CLOUDY    57  25  28 S8        29.77S
T OR C         PTCLDY    53  31  42 SW8       29.74R

$$
NMZ519>523-261400-
CENTRAL VALLEYS/CENTRAL HIGHLANDS

CITY           SKY/WX    TMP DP  RH WIND       PRES   REMARKS
ALBUQUERQUE    RAIN      47  41  80 W7        29.79R
DOUBLE EAGLE   LGT RAIN  45  39  81 CALM      29.78R
MORIARTY ARPT  FAIR      41  25  52 E5        29.78S
CLINES CORNERS MOCLDY    44  26  49 S7        29.77S
BELEN          LGT RAIN  48  40  75 S10G17    29.78R
SOCORRO        CLOUDY    52  37  56 CALM      29.74S

$$
NMZ524>526-539-540-261400-
SOUTHCENTRAL MOUNTAINS

CITY           SKY/WX    TMP DP  RH WIND       PRES   REMARKS
RUIDOSO        MOCLDY    48  19  32 NW7       29.82S

$$
NMZ527>531-261400-
NORTHEAST HIGHLANDS/NORTHEAST PLAINS

CITY           SKY/WX    TMP DP  RH WIND       PRES   REMARKS
LAS VEGAS      CLOUDY    39  25  57 NE7       29.78S WCI  34
RATON          MOCLDY    37  28  70 N5        29.77R WCI  33
CLAYTON        MOCLDY    48  33  56 N10       29.74R

$$
NMZ532>537-261400-
EASTCENTRAL PLAINS

CITY           SKY/WX    TMP DP  RH WIND       PRES   REMARKS
TUCUMCARI      CLOUDY    50  28  42 SW3       29.70R
CANNON AFB     CLOUDY    49  27  41 CALM      29.74R
CLOVIS AIRPORT CLOUDY    48  27  43 W6        29.75R

$$
NMZ028-029-538-261400-
SOUTHEAST PLAINS

CITY           SKY/WX    TMP DP  RH WIND       PRES   REMARKS
ROSWELL        PTCLDY    55  28  35 S12       29.71R
ARTESIA        PTCLDY    57  27  30 S9        29.74R
CARLSBAD       MOCLDY    48  32  53 CALM      29.73R
HOBBS          CLEAR     48  32  53 CALM      29.76R


$$


USA.gov is the U.S. government's official web portal to all federal, state and local government web resources and services.